Zurück zum Katalog

ONEWEB-0589

AktivKommunikationPO
NORAD 54655·PAYLOAD·🇬🇧 United Kingdom

Gestartet Dec 8, 2022 von Cape Canaveral Space Force Station

Loading…

Nächste Überflüge (nächste 24 Stunden)

TLE

AktuellSource: CelesTrak SupGP

Epoche: Sep 14, 2026, 07:33 UTC

1 54655C 22166P   26257.31507362  .00003968  00000+0  96184-2 0  2573
2 54655  87.9275 226.2354 0002694  98.7158  13.5058 13.21823222    17

Verfolge ONEWEB-0589 in Echtzeit mit AllMySat

Download on the App Store